Weather History for LHBP - February, 2013

Change the Weather History Date:

Friday, February 15, 2013

  Actual Average Record
Temperature  
Mean Temperature 40 °F -  
Max Temperature 44 °F 44 °F 60 °F (1998)
Min Temperature 35 °F 27 °F 8 °F (2003)
Degree Days  
Heating Degree Days 26    
Moisture  
Dew Point 38 °F    
Average Humidity 95    
Maximum Humidity 100    
Minimum Humidity 81    
Precipitation  
Precipitation 0.00 in - - ()
Sea Level Pressure  
Sea Level Pressure 30.06 in    
Wind  
Wind Speed 3 mph ()    
Max Wind Speed 7 mph    
Max Gust Speed -    
Visibility 3.0 miles    
Events Fog    
Averages and records for this station are not official NWS values.
T = Trace of Precipitation, MM = Missing Value Source: Averaged Metar Reports

Daily Weather History Graph

Daily Weather History Graph

Search for Another Location

Airport or City:

Trip Planner

Search our weather history database for the weather conditions in past years. The results will help you decide how hot, cold, wet, or windy it might be!

Date:

Astronomy

Feb. 15, 2013 Rise Set
Actual Time 6:48 AM CET 5:06 PM CET
Civil Twilight 6:16 AM CET 5:38 PM CET
Nautical Twilight 5:40 AM CET 6:14 PM CET
Astronomical Twilight 5:05 AM CET 6:49 PM CET
Moon 8:47 AM CET (2/15) 11:18 PM CET (2/15)
Length of Visible Light 11h 21m
Length of Day
10h 18m
Waxing Crescent, 28% of the Moon is Illuminated
Feb 15
Waxing Crescent
Feb 17
First Quarter
Feb 25
Full
Mar 4
Last Quarter
Mar 11
New

Hourly Weather History & Observations

Time (CET) Temp. Windchill Dew Point Humidity Pressure Visibility Wind Dir Wind Speed Gust Speed Precip Events Conditions
12:00 AM 35.6 °F 32.8 °F 35.6 °F 100% 30.06 in 0.9 mi Variable 3.5 mph - N/A   Overcast
12:30 AM 35.6 °F - 35.6 °F 100% 30.06 in 0.9 mi Variable 1.2 mph - N/A   Overcast
1:00 AM 35.6 °F 32.8 °F 35.6 °F 100% 30.06 in 1.0 mi Variable 3.5 mph - N/A   Overcast
1:30 AM 35.6 °F - 35.6 °F 100% 30.06 in 1.1 mi Variable 2.3 mph - N/A   Overcast
2:00 AM 35.6 °F - 35.6 °F 100% 30.06 in 1.1 mi Variable 2.3 mph - N/A   Mostly Cloudy
2:30 AM 35.6 °F - 35.6 °F 100% 30.06 in 0.9 mi Variable 2.3 mph - N/A   Mostly Cloudy
3:00 AM 35.6 °F - 35.6 °F 100% 30.04 in 0.7 mi Variable 1.2 mph - N/A Fog Overcast
3:30 AM 35.6 °F - 35.6 °F 100% 30.04 in 0.7 mi Variable 2.3 mph - N/A Fog Overcast
4:00 AM 35.6 °F 32.8 °F 35.6 °F 100% 30.04 in 0.7 mi Variable 3.5 mph - N/A Fog Mostly Cloudy
4:30 AM 35.6 °F - 35.6 °F 100% 30.04 in 0.7 mi Calm Calm - N/A   Overcast
5:00 AM 35.6 °F - 35.6 °F 100% 30.04 in 0.7 mi Variable 1.2 mph - N/A   Mostly Cloudy
5:30 AM 35.6 °F 30.7 °F 35.6 °F 100% 30.04 in 0.7 mi WNW 5.8 mph - N/A   Mostly Cloudy
6:00 AM 35.6 °F 32.8 °F 35.6 °F 100% 30.04 in 0.6 mi Variable 3.5 mph - N/A Fog Patches of Fog
6:30 AM 35.6 °F - 35.6 °F 100% 30.04 in 0.6 mi Variable 1.2 mph - N/A Fog Patches of Fog
7:00 AM 35.6 °F - 35.6 °F 100% 30.04 in 1.1 mi Variable 2.3 mph - N/A   Overcast
7:30 AM 35.6 °F - 35.6 °F 100% 30.04 in 1.5 mi Variable 1.2 mph - N/A   Overcast
8:00 AM 35.6 °F - 35.6 °F 100% 30.04 in 1.5 mi Variable 1.2 mph - N/A   Mostly Cloudy
8:30 AM 35.6 °F - 35.6 °F 100% 30.06 in 1.5 mi Variable 2.3 mph - N/A   Mostly Cloudy
9:00 AM 37.4 °F - 37.4 °F 100% 30.06 in 1.6 mi Variable 2.3 mph - N/A   Mostly Cloudy
9:30 AM 39.2 °F - 39.2 °F 100% 30.04 in 2.2 mi Variable 2.3 mph - N/A   Mostly Cloudy
10:00 AM 39.2 °F - 39.2 °F 100% 30.06 in 3.1 mi Variable 2.3 mph - N/A   Mostly Cloudy
10:30 AM 41.0 °F - 37.4 °F 87% 30.06 in 3.1 mi Calm Calm - N/A   Mostly Cloudy
11:00 AM 42.8 °F - 39.2 °F 87% 30.06 in 3.7 mi Variable 1.2 mph - N/A   Mostly Cloudy
11:30 AM 42.8 °F - 39.2 °F 87% 30.06 in 3.7 mi Variable 2.3 mph - N/A   Mostly Cloudy
12:00 PM 42.8 °F 41.1 °F 39.2 °F 87% 30.06 in 5.0 mi Variable 3.5 mph - N/A   Mostly Cloudy
12:30 PM 42.8 °F 41.1 °F 39.2 °F 87% 30.04 in 5.0 mi Variable 3.5 mph - N/A   Mostly Cloudy
1:00 PM 44.6 °F 43.1 °F 41.0 °F 87% 30.04 in 5.0 mi Variable 3.5 mph - N/A   Mostly Cloudy
1:30 PM 44.6 °F 43.1 °F 39.2 °F 81% 30.04 in 5.0 mi Variable 3.5 mph - N/A   Mostly Cloudy
2:00 PM 44.6 °F 43.1 °F 39.2 °F 81% 30.04 in 6.2 mi Variable 3.5 mph - N/A   Mostly Cloudy
2:30 PM 44.6 °F 42.2 °F 39.2 °F 81% 30.04 in 6.2 mi NW 4.6 mph - N/A   Mostly Cloudy
3:00 PM 44.6 °F 42.2 °F 39.2 °F 81% 30.04 in 6.2 mi WNW 4.6 mph - N/A   Mostly Cloudy
3:30 PM 44.6 °F 41.4 °F 41.0 °F 87% 30.04 in 6.2 mi WNW 5.8 mph - N/A   Mostly Cloudy
4:00 PM 44.6 °F 41.4 °F 41.0 °F 87% 30.04 in 5.0 mi NW 5.8 mph - N/A   Mostly Cloudy
4:30 PM 42.8 °F 39.3 °F 39.2 °F 87% 30.04 in 5.0 mi NW 5.8 mph - N/A   Mostly Cloudy
5:00 PM 42.8 °F 40.1 °F 39.2 °F 87% 30.06 in 5.0 mi WNW 4.6 mph - N/A   Mostly Cloudy
5:30 PM 41.0 °F 38.0 °F 41.0 °F 100% 30.06 in 5.0 mi WSW 4.6 mph - N/A   Mostly Cloudy
6:00 PM 41.0 °F 39.0 °F 41.0 °F 100% 30.06 in 5.0 mi Variable 3.5 mph - N/A   Mostly Cloudy
6:30 PM 39.2 °F - 37.4 °F 93% 30.06 in 5.0 mi Variable 2.3 mph - N/A   Mostly Cloudy
7:00 PM 39.2 °F 35.9 °F 37.4 °F 93% 30.06 in - WNW 4.6 mph - N/A   Clear
7:30 PM 39.2 °F 35.9 °F 39.2 °F 100% 30.09 in 5.0 mi WNW 4.6 mph - N/A   Unknown
8:00 PM 37.4 °F 32.1 °F 37.4 °F 100% 30.09 in 5.0 mi WNW 6.9 mph - N/A   Unknown
8:30 PM 37.4 °F 32.1 °F 37.4 °F 100% 30.09 in 3.7 mi WNW 6.9 mph - N/A   Unknown
9:00 PM 37.4 °F 32.8 °F 37.4 °F 100% 30.09 in 3.7 mi NW 5.8 mph - N/A   Unknown
9:30 PM 37.4 °F 32.8 °F 37.4 °F 100% 30.09 in 3.7 mi WNW 5.8 mph - N/A   Unknown
10:00 PM 37.4 °F 32.1 °F 37.4 °F 100% 30.09 in 3.7 mi WNW 6.9 mph - N/A   Unknown
10:30 PM 37.4 °F 34.9 °F 37.4 °F 100% 30.09 in 3.1 mi Variable 3.5 mph - N/A   Mist
11:00 PM 35.6 °F 30.7 °F 35.6 °F 100% 30.09 in 3.1 mi WNW 5.8 mph - N/A   Mist
11:30 PM 35.6 °F 30.7 °F 35.6 °F 100% 30.09 in 3.1 mi WNW 5.8 mph - N/A   Mist